JASPER WARDEN, Alberta

12:53 PM MST on February 19, 2017 (GMT -0700)
Jasper

Weather History for CWJW - September, 2013

Change the Weather History Date:

Wednesday, September 18, 2013

  Actual Average Record
Temperature  
Mean Temperature 50 °F -  
Max Temperature 63 °F - - ()
Min Temperature 37 °F - - ()
Degree Days  
Heating Degree Days 15    
Moisture  
Dew Point 33 °F    
Average Humidity 56    
Maximum Humidity 83    
Minimum Humidity 16    
Precipitation  
Precipitation 0.00 in - - ()
Sea Level Pressure  
Sea Level Pressure 29.88 in    
Wind  
Wind Speed 2 mph ()    
Max Wind Speed 5 mph    
Max Gust Speed -    
T = Trace of Precipitation, MM = Missing Value Source: Averaged Metar Reports

Daily Weather History Graph

Daily Weather History Graph

Search for Another Location

Airport or City:

Trip Planner

Search our weather history database for the weather conditions in past years. The results will help you decide how hot, cold, wet, or windy it might be!

Date:

Astronomy

Sep. 18, 2013 Rise Set
Actual Time 7:31 AM MDT 7:59 PM MDT
Civil Twilight 6:57 AM MDT 8:33 PM MDT
Nautical Twilight 6:15 AM MDT 9:14 PM MDT
Astronomical Twilight 5:32 AM MDT 9:58 PM MDT
Moon 7:21 PM MDT (9/18) 6:38 AM MDT (9/18)
Length of Visible Light 13h 36m
Length of Day
12h 27m
Waxing Gibbous, 99% of the Moon is Illuminated
Sep 18
Waxing Gibbous
Sep 19
Full
Sep 26
Last Quarter
Oct 4
New
Oct 11
First Quarter

Hourly Weather History & Observations

Time (MDT) Temp. Windchill Dew Point Humidity Pressure Visibility Wind Dir Wind Speed Gust Speed Precip Events Conditions
12:00 AM 46 °F - 35 °F 54% 29.79 in - South 1.2 mph - -  
12:00 AM 45.9 °F - 34.7 °F 65% 29.79 in - South 1.2 mph - N/A   Unknown
1:00 AM 44.8 °F - 33.6 °F 65% 29.78 in - Calm Calm - N/A   Unknown
2:00 AM 39.7 °F 37.6 °F 33.1 °F 77% 29.81 in - SW 3.5 mph - N/A   Unknown
3:00 AM 40.1 °F 38.0 °F 33.6 °F 78% 29.81 in - South 3.5 mph - N/A   Unknown
4:00 AM 40.5 °F - 35.6 °F 83% 29.81 in - South 2.3 mph - N/A   Unknown
5:00 AM 41.9 °F - 35.6 °F 78% 29.83 in - SSW 2.3 mph - N/A   Unknown
6:00 AM 41 °F - 35 °F 71% 29.84 in - Calm Calm - -  
6:00 AM 41.2 °F - 34.9 °F 78% 29.84 in - Calm Calm - N/A   Unknown
7:00 AM 41.0 °F - 35.4 °F 81% 29.86 in - SSW 1.2 mph - N/A   Unknown
8:00 AM 40.8 °F - 35.6 °F 82% 29.89 in - SW 1.2 mph - N/A   Unknown
9:00 AM 45.9 °F - 37.6 °F 73% 29.88 in - SSW 1.2 mph - N/A   Unknown
10:00 AM 49.5 °F - 36.1 °F 60% 29.90 in - North 2.3 mph - N/A   Unknown
11:00 AM 52.5 °F - 35.4 °F 52% 29.90 in - North 3.5 mph - N/A   Unknown
12:00 PM 55 °F - 33 °F 31% 29.90 in - NNW 4.6 mph - -  
12:00 PM 54.9 °F - 33.3 °F 44% 29.90 in - NNW 4.6 mph - N/A   Unknown
1:00 PM 55.8 °F - 33.6 °F 43% 29.91 in - NNE 3.5 mph - N/A   Unknown
2:00 PM 56.3 °F - 32.0 °F 40% 29.91 in - North 4.6 mph - N/A   Unknown
3:00 PM 57.9 °F - 28.9 °F 33% 29.90 in - NNW 1.2 mph - N/A   Unknown
4:00 PM 60.4 °F - 27.9 °F 29% 29.88 in - NW 2.3 mph - N/A   Unknown
5:00 PM 60.3 °F - 28.6 °F 30% 29.89 in - NW 2.3 mph - N/A   Unknown
6:00 PM 63 °F - 29 °F 16% 29.88 in - NE 1.2 mph - -  
6:00 PM 63.0 °F - 28.6 °F 27% 29.88 in - NE 1.2 mph - N/A   Unknown
7:00 PM 58.5 °F - 29.7 °F 33% 29.91 in - NNW 4.6 mph - N/A   Unknown
8:00 PM 50.0 °F - 29.7 °F 46% 29.94 in - NNE 2.3 mph - N/A   Unknown
9:00 PM 44.2 °F - 30.7 °F 59% 29.98 in - Calm Calm - N/A   Unknown
10:00 PM 43.3 °F - 29.5 °F 58% 29.99 in - South 2.3 mph - N/A   Unknown
11:00 PM 37.9 °F - 29.8 °F 73% 30.01 in - South 1.2 mph - N/A   Unknown